User: anonymous   Login
Location: Unspecified
(0.0000°N, 0.0000°E)
Time: 19:43:40
(UTC+00:00)
Language:

Nadezhda 6 - Orbit

View from above orbital plane
View from above orbital plane
View from above satellite
View from above satellite

Ground track
Ground track

The orbit data is extracted from the following two-line orbital elements,

1 26384U 00033A   17269.36725192  .00000061  00000-0  19685-4 0  9999
2 26384  98.0046 332.8134 0016691  72.0156 288.2878 14.66367896921630
Epoch (UTC): 26 September 2017 08:48:50
Eccentricity: 0.0016691
inclination: 98.0046°
perigee height: 661 km
apogee height: 684 km
right ascension of ascending node: 332.8134°
argument of perigee: 72.0156°
revolutions per day: 14.66367896
mean anomaly at epoch: 288.2878°
orbit number at epoch: 92163

The dashed part of the orbit path shows where the satellite is in the earth's shadow,  

DLR